OSCAR 23 (KITSAT 1)

导读 | 豆包AI

OSCAR 23(别名KITSAT 1)是韩国(KR)研制的首颗国产卫星,于1992年8月10日发射升空。该卫星定位为技术演示与业余无线电通信卫星,重量约110千克,运行在近地轨道。它不仅验证了韩国自主卫星技术,还承载了空间环境探测任务,并为全球业余无线电爱好者提供转发服务,是韩国航天起步的标志性项目。

Basic Information
目录编号:
22077
目录名称:
OSCAR 23 (KITSAT 1)
国际标识:
1992-052B
轨道中心:
EARTH
卫星名称:
OSCAR 23 (KITSAT 1)
卫星全名:
--
卫星状态:
在轨 (已飞行12346 天)
发射日期:
1992-08-10 UTC
国别 :
韩国 (KR)
星等 :
--
Orbit Information
数据来源 国际轨道数据 AOE轨道数据
星历时间 2026-05-29T19:51:56+0800
12小时前
查看轨道信息
2026-05-25T15:00:00+0800
4天前
查看轨道信息
半长轴 7693.136km 7693.147km
偏心率 0.0015027 0.0014647
轨道倾角 66.086° 66.088°
近地点辐角 287.514° 289.819°
升交点赤经 320.270° 329.077°
平近点角 104.597° 78.023°
近地点 1303.438km 1303.741km
远地点 1326.56km 1326.279km
周期 111.922分钟 111.922分钟
每日圈数 12.866122 12.866095
Detailed Information
使用方式:
暂无
2D Orbit Map
3D Orbit Map
Orbit Altitude Analysis Chart
Orbit Inclination Analysis Chart
Orbit Comprehensive Analysis Chart
View Comprehensive Chart